| time (UTC) | temp F | wind direction | speed knots | gust knots | rain 1hr in | rain 24hr in | rain mn in | humidity % | barometer mb |
| 20260510000506 | 49 | 56 | 0.9 | 3.5 | 0.00 | 0.52 | 0.52 | 94 | 1011.2 |
| 20260510000018 | 49 | 61 | 0.0 | 1.7 | 0.00 | 0.52 | 0.52 | 94 | 1011.2 |
| 20260509235513 | 49 | 137 | 0.0 | 1.7 | 0.00 | 0.52 | 0.52 | 94 | 1011.3 |
| 20260509235007 | 49 | 205 | 0.0 | 1.7 | 0.00 | 0.52 | 0.52 | 94 | 1011.3 |
| 20260509234520 | 49 | 221 | 0.0 | 3.5 | 0.00 | 0.52 | 0.52 | 94 | 1011.2 |
| 20260509234007 | 49 | 193 | 0.9 | 3.5 | 0.00 | 0.52 | 0.52 | 94 | 1011.2 |
| 20260509233506 | 49 | 225 | 1.7 | 2.6 | 0.00 | 0.52 | 0.52 | 94 | 1011.2 |
| 20260509233024 | 49 | 178 | 0.9 | 2.6 | 0.00 | 0.52 | 0.52 | 94 | 1011.1 |
| 20260509232508 | 49 | 190 | 0.9 | 3.5 | 0.00 | 0.52 | 0.52 | 94 | 1011.2 |
| 20260509232003 | 49 | 146 | 0.9 | 3.5 | 0.00 | 0.52 | 0.52 | 94 | 1011.2 |
| 20260509231509 | 49 | 219 | 1.7 | 3.5 | 0.00 | 0.52 | 0.52 | 94 | 1011.2 |
| 20260509231003 | 49 | 137 | 0.9 | 3.5 | 0.00 | 0.52 | 0.52 | 94 | 1011.1 |
| 20260509230504 | 49 | 236 | 0.9 | 2.6 | 0.00 | 0.52 | 0.52 | 94 | 1011.1 |
| 20260509230012 | 49 | 26 | 0.0 | 3.5 | 0.00 | 0.52 | 0.52 | 94 | 1011.2 |
| 20260509225507 | 49 | 265 | 0.0 | 3.5 | 0.00 | 0.52 | 0.52 | 94 | 1011.2 |
| 20260509225007 | 49 | 131 | 1.7 | 2.6 | 0.00 | 0.52 | 0.52 | 94 | 1011.2 |
| 20260509224520 | 49 | 153 | 0.9 | 2.6 | 0.00 | 0.52 | 0.52 | 94 | 1011.2 |
| 20260509224007 | 49 | 108 | 0.9 | 3.5 | 0.00 | 0.52 | 0.52 | 94 | 1011.2 |
| 20260509223509 | 49 | 9 | 0.0 | 3.5 | 0.00 | 0.52 | 0.52 | 94 | 1011.3 |
| 20260509223023 | 49 | 26 | 0.9 | 2.6 | 0.00 | 0.52 | 0.52 | 94 | 1011.1 |
| 20260509222506 | 49 | 34 | 0.9 | 2.6 | 0.00 | 0.52 | 0.52 | 94 | 1011.0 |
| 20260509222010 | 49 | 265 | 0.0 | 1.7 | 0.00 | 0.52 | 0.52 | 94 | 1010.9 |
| 20260509221537 | 48 | 111 | 0.0 | 2.6 | 0.00 | 0.52 | 0.52 | 94 | 1010.9 |
| 20260509221008 | 48 | 61 | 0.9 | 3.5 | 0.00 | 0.52 | 0.52 | 94 | 1011.1 |
| 20260509220502 | 48 | 44 | 1.7 | 3.5 | 0.00 | 0.52 | 0.52 | 94 | 1011.2 |
| 20260509220010 | 48 | 47 | 1.7 | 3.5 | 0.00 | 0.52 | 0.52 | 94 | 1011.2 |
| 20260509215505 | 48 | 57 | 0.9 | 3.5 | 0.01 | 0.52 | 0.52 | 94 | 1011.3 |
| 20260509215006 | 48 | 48 | 1.7 | 3.5 | 0.01 | 0.52 | 0.52 | 94 | 1011.3 |
| 20260509214516 | 48 | 19 | 0.9 | 3.5 | 0.01 | 0.52 | 0.52 | 94 | 1011.3 |
| 20260509214006 | 48 | 119 | 0.0 | 3.5 | 0.01 | 0.52 | 0.52 | 94 | 1011.4 |
| 20260509213508 | 48 | 129 | 0.0 | 2.6 | 0.01 | 0.52 | 0.52 | 94 | 1011.5 |
| 20260509213020 | 48 | 232 | 0.9 | 2.6 | 0.02 | 0.52 | 0.52 | 94 | 1011.5 |
| 20260509212513 | 48 | 9 | 0.9 | 3.5 | 0.02 | 0.52 | 0.52 | 94 | 1011.6 |
| 20260509212014 | 48 | 178 | 1.7 | 4.3 | 0.02 | 0.52 | 0.52 | 94 | 1011.5 |
| 20260509211521 | 48 | 250 | 0.9 | 6.1 | 0.03 | 0.52 | 0.52 | 94 | 1011.7 |
| 20260509211007 | 48 | 9 | 1.7 | 6.1 | 0.03 | 0.52 | 0.52 | 94 | 1011.6 |
| 20260509210506 | 48 | 178 | 1.7 | 4.3 | 0.03 | 0.52 | 0.52 | 94 | 1011.8 |
| 20260509210025 | 48 | 126 | 0.9 | 3.5 | 0.04 | 0.52 | 0.52 | 94 | 1011.8 |
| 20260509205510 | 48 | 221 | 0.0 | 3.5 | 0.04 | 0.52 | 0.52 | 94 | 1011.9 |
| 20260509205009 | 48 | 161 | 0.9 | 3.5 | 0.05 | 0.52 | 0.52 | 94 | 1011.9 |
| 20260509204511 | 48 | 190 | 0.9 | 3.5 | 0.05 | 0.52 | 0.52 | 93 | 1011.9 |
| 20260509204007 | 48 | 178 | 0.9 | 3.5 | 0.06 | 0.52 | 0.52 | 94 | 1012.0 |
| 20260509203505 | 48 | 227 | 1.7 | 5.2 | 0.07 | 0.52 | 0.52 | 93 | 1012.0 |
| 20260509203019 | 48 | 205 | 2.6 | 5.2 | 0.06 | 0.51 | 0.51 | 94 | 1012.0 |
| 20260509202506 | 48 | 201 | 1.7 | 4.3 | 0.07 | 0.51 | 0.51 | 94 | 1012.0 |
| 20260509202008 | 48 | 205 | 1.7 | 4.3 | 0.08 | 0.51 | 0.51 | 94 | 1012.1 |
| 20260509201520 | 48 | 190 | 2.6 | 4.3 | 0.08 | 0.50 | 0.50 | 94 | 1012.1 |
| 20260509201005 | 48 | 194 | 1.7 | 4.3 | 0.08 | 0.50 | 0.50 | 94 | 1012.2 |
| 20260509200509 | 47 | 165 | 1.7 | 4.3 | 0.09 | 0.50 | 0.50 | 94 | 1012.2 |
| 20260509200026 | 47 | 188 | 1.7 | 3.5 | 0.08 | 0.49 | 0.49 | 93 | 1012.2 |
| 20260509195508 | 47 | 205 | 0.9 | 2.6 | 0.08 | 0.48 | 0.48 | 93 | 1012.2 |
| 20260509195009 | 47 | 144 | 0.0 | 3.5 | 0.08 | 0.47 | 0.47 | 94 | 1012.2 |
| 20260509194527 | 47 | 165 | 0.9 | 3.5 | 0.08 | 0.47 | 0.47 | 94 | 1012.3 |
| 20260509194001 | 47 | 221 | 0.9 | 2.6 | 0.08 | 0.46 | 0.46 | 93 | 1012.3 |
| 20260509193502 | 47 | 144 | 0.9 | 2.6 | 0.08 | 0.45 | 0.45 | 93 | 1012.3 |
| 20260509193003 | 47 | 93 | 0.9 | 3.5 | 0.08 | 0.45 | 0.45 | 94 | 1012.4 |
| 20260509192502 | 47 | 93 | 0.9 | 3.5 | 0.08 | 0.44 | 0.44 | 94 | 1012.5 |
| 20260509192005 | 47 | 158 | 0.9 | 2.6 | 0.08 | 0.43 | 0.43 | 94 | 1012.5 |
| 20260509191504 | 47 | 93 | 0.9 | 2.6 | 0.07 | 0.42 | 0.42 | 93 | 1012.6 |
| 20260509191004 | 47 | 165 | 0.9 | 2.6 | 0.08 | 0.42 | 0.42 | 93 | 1012.6 |
| 20260509190502 | 47 | 119 | 0.9 | 1.7 | 0.07 | 0.41 | 0.41 | 93 | 1012.7 |
| 20260509190004 | 47 | 221 | 0.0 | 2.6 | 0.08 | 0.41 | 0.41 | 94 | 1012.7 |
| 20260509185503 | 47 | 80 | 0.9 | 2.6 | 0.08 | 0.40 | 0.40 | 93 | 1012.8 |
| 20260509185003 | 47 | 51 | 1.7 | 2.6 | 0.07 | 0.39 | 0.39 | 93 | 1012.8 |
| 20260509184507 | 47 | 85 | 0.9 | 4.3 | 0.08 | 0.39 | 0.39 | 93 | 1012.8 |
| 20260509184002 | 47 | 76 | 1.7 | 4.3 | 0.08 | 0.38 | 0.38 | 93 | 1012.8 |
| 20260509183502 | 47 | 61 | 0.9 | 2.6 | 0.07 | 0.37 | 0.37 | 93 | 1012.9 |
| 20260509183004 | 47 | 137 | 0.0 | 1.7 | 0.08 | 0.37 | 0.37 | 92 | 1012.9 |
| 20260509182504 | 47 | 161 | 0.0 | 2.6 | 0.08 | 0.36 | 0.36 | 92 | 1012.9 |
| 20260509182003 | 47 | 93 | 1.7 | 2.6 | 0.08 | 0.35 | 0.35 | 93 | 1012.8 |
| 20260509181504 | 46 | 9 | 0.0 | 1.7 | 0.08 | 0.35 | 0.35 | 92 | 1012.8 |
| 20260509181002 | 46 | 165 | 0.0 | 2.6 | 0.08 | 0.34 | 0.34 | 92 | 1012.9 |
| 20260509180501 | 46 | 178 | 0.0 | 3.5 | 0.09 | 0.34 | 0.34 | 92 | 1013.0 |
| 20260509180003 | 46 | 205 | 0.9 | 4.3 | 0.08 | 0.33 | 0.33 | 92 | 1013.0 |
| 20260509175505 | 46 | 153 | 0.9 | 4.3 | 0.08 | 0.32 | 0.32 | 92 | 1013.1 |
| 20260509175002 | 46 | 187 | 1.7 | 3.5 | 0.09 | 0.32 | 0.32 | 92 | 1013.2 |
| 20260509174503 | 46 | 234 | 0.9 | 4.3 | 0.09 | 0.31 | 0.31 | 92 | 1013.3 |
| 20260509174002 | 46 | 208 | 1.7 | 5.2 | 0.09 | 0.30 | 0.30 | 92 | 1013.3 |
| 20260509173504 | 46 | 160 | 1.7 | 5.2 | 0.09 | 0.30 | 0.30 | 92 | 1013.4 |
| 20260509173011 | 46 | 221 | 2.6 | 5.2 | 0.09 | 0.29 | 0.29 | 92 | 1013.4 |
| 20260509172503 | 46 | 178 | 0.9 | 3.5 | 0.09 | 0.28 | 0.28 | 93 | 1013.5 |
| 20260509172004 | 46 | 178 | 0.9 | 3.5 | 0.09 | 0.27 | 0.27 | 93 | 1013.5 |
| 20260509171503 | 46 | 215 | 0.9 | 3.5 | 0.09 | 0.27 | 0.27 | 93 | 1013.5 |
| 20260509171003 | 46 | 247 | 1.7 | 3.5 | 0.09 | 0.26 | 0.26 | 93 | 1013.6 |
| 20260509170504 | 46 | 132 | 0.9 | 3.5 | 0.08 | 0.25 | 0.25 | 93 | 1013.5 |
| 20260509170012 | 45 | 153 | 0.9 | 2.6 | 0.09 | 0.25 | 0.25 | 93 | 1013.6 |
| 20260509165502 | 45 | 153 | 0.9 | 2.6 | 0.08 | 0.24 | 0.24 | 93 | 1013.6 |
| 20260509165004 | 46 | 126 | 0.9 | 2.6 | 0.08 | 0.23 | 0.23 | 93 | 1013.7 |
| 20260509164504 | 46 | 80 | 0.0 | 2.6 | 0.08 | 0.22 | 0.22 | 92 | 1013.7 |
| 20260509164002 | 46 | 132 | 0.9 | 2.6 | 0.07 | 0.21 | 0.21 | 93 | 1013.6 |
| 20260509163502 | 45 | 34 | 0.9 | 3.5 | 0.08 | 0.21 | 0.21 | 92 | 1013.7 |
| 20260509163010 | 46 | 61 | 1.7 | 3.5 | 0.07 | 0.20 | 0.20 | 92 | 1013.7 |
| 20260509162503 | 46 | 334 | 0.0 | 1.7 | 0.07 | 0.19 | 0.19 | 93 | 1013.8 |
| 20260509162005 | 45 | 41 | 0.0 | 3.5 | 0.07 | 0.18 | 0.18 | 93 | 1013.8 |
| 20260509161509 | 45 | 51 | 0.9 | 4.3 | 0.08 | 0.18 | 0.18 | 93 | 1013.9 |
| 20260509161003 | 45 | 41 | 1.7 | 4.3 | 0.08 | 0.17 | 0.17 | 93 | 1013.9 |
| 20260509160504 | 45 | 63 | 2.6 | 4.3 | 0.08 | 0.17 | 0.17 | 93 | 1014.0 |
| 20260509160011 | 45 | 55 | 1.7 | 2.6 | 0.08 | 0.16 | 0.16 | 92 | 1014.1 |
| 20260509155503 | 45 | 303 | 0.9 | 2.6 | 0.09 | 0.16 | 0.16 | 93 | 1014.2 |
| 20260509155007 | 45 | 51 | 0.9 | 2.6 | 0.08 | 0.15 | 0.15 | 92 | 1014.2 |
| 20260509154503 | 45 | 51 | 0.0 | 2.6 | 0.08 | 0.14 | 0.14 | 93 | 1014.2 |
| 20260509154003 | 45 | 9 | 0.0 | 1.7 | 0.08 | 0.14 | 0.14 | 93 | 1014.3 |
| 20260509153502 | 45 | 309 | 0.0 | 1.7 | 0.07 | 0.13 | 0.13 | 93 | 1014.4 |
| 20260509153006 | 44 | 221 | 0.0 | 1.7 | 0.07 | 0.13 | 0.13 | 93 | 1014.5 |
| 20260509152503 | 44 | 34 | 0.0 | 1.7 | 0.07 | 0.12 | 0.12 | 93 | 1014.6 |
| 20260509152002 | 44 | 178 | 0.0 | 2.6 | 0.06 | 0.11 | 0.11 | 93 | 1014.6 |
| 20260509151510 | 43 | 153 | 0.0 | 2.6 | 0.05 | 0.10 | 0.10 | 93 | 1014.7 |
| 20260509151003 | 43 | 178 | 0.9 | 3.5 | 0.04 | 0.09 | 0.09 | 92 | 1014.8 |
| 20260509150503 | 43 | 9 | 0.9 | 3.5 | 0.05 | 0.09 | 0.09 | 93 | 1014.7 |
| 20260509150008 | 43 | 178 | 0.9 | 3.5 | 0.04 | 0.08 | 0.08 | 93 | 1014.8 |
| 20260509145504 | 43 | 178 | 0.9 | 3.5 | 0.03 | 0.07 | 0.07 | 93 | 1014.7 |
| 20260509145003 | 43 | 178 | 0.9 | 3.5 | 0.04 | 0.07 | 0.07 | 92 | 1014.7 |
| 20260509144512 | 43 | 196 | 0.9 | 3.5 | 0.03 | 0.06 | 0.06 | 92 | 1014.6 |
| 20260509144004 | 43 | 196 | 0.9 | 3.5 | 0.03 | 0.06 | 0.06 | 92 | 1014.6 |
| 20260509143504 | 43 | 131 | 0.9 | 2.6 | 0.04 | 0.06 | 0.06 | 92 | 1014.6 |
| 20260509143014 | 42 | 67 | 0.0 | 2.6 | 0.04 | 0.06 | 0.06 | 92 | 1014.6 |
| 20260509142503 | 43 | 51 | 0.0 | 2.6 | 0.03 | 0.05 | 0.05 | 92 | 1014.5 |
| 20260509142003 | 42 | 232 | 1.7 | 2.6 | 0.03 | 0.05 | 0.05 | 92 | 1014.6 |
| 20260509141518 | 42 | 190 | 0.9 | 2.6 | 0.03 | 0.05 | 0.05 | 92 | 1014.5 |
| 20260509141004 | 42 | 119 | 0.9 | 2.6 | 0.03 | 0.05 | 0.05 | 92 | 1014.6 |
| 20260509140504 | 42 | 51 | 0.9 | 2.6 | 0.03 | 0.04 | 0.04 | 92 | 1014.5 |
| 20260509140010 | 41 | 126 | 0.0 | 2.6 | 0.03 | 0.04 | 0.04 | 91 | 1014.5 |
| 20260509135506 | 41 | 146 | 0.9 | 3.5 | 0.03 | 0.04 | 0.04 | 91 | 1014.5 |
| 20260509135005 | 41 | 129 | 0.9 | 3.5 | 0.03 | 0.03 | 0.03 | 91 | 1014.6 |
| 20260509134512 | 41 | 178 | 0.9 | 3.5 | 0.03 | 0.03 | 0.03 | 91 | 1014.6 |
| 20260509134005 | 41 | 146 | 0.9 | 3.5 | 0.03 | 0.03 | 0.03 | 91 | 1014.6 |
| 20260509133507 | 41 | 190 | 0.9 | 3.5 | 0.02 | 0.02 | 0.02 | 90 | 1014.6 |
| 20260509133015 | 41 | 188 | 0.9 | 3.5 | 0.02 | 0.02 | 0.02 | 90 | 1014.6 |
| 20260509132504 | 41 | 178 | 0.9 | 3.5 | 0.02 | 0.02 | 0.02 | 90 | 1014.5 |
| 20260509132006 | 41 | 193 | 0.9 | 3.5 | 0.02 | 0.02 | 0.02 | 90 | 1014.5 |
| 20260509131516 | 41 | 165 | 1.7 | 3.5 | 0.02 | 0.02 | 0.02 | 89 | 1014.6 |
| 20260509131004 | 41 | 137 | 0.9 | 4.3 | 0.02 | 0.02 | 0.02 | 88 | 1014.5 |
| 20260509130504 | 41 | 250 | 1.7 | 4.3 | 0.01 | 0.01 | 0.01 | 88 | 1014.5 |
| 20260509130008 | 40 | 193 | 0.9 | 4.3 | 0.01 | 0.01 | 0.01 | 88 | 1014.4 |
| 20260509125504 | 40 | 239 | 1.7 | 4.3 | 0.01 | 0.01 | 0.01 | 89 | 1014.4 |
| 20260509125002 | 40 | 209 | 1.7 | 3.5 | 0.00 | 0.00 | 0.00 | 88 | 1014.4 |
| 20260509124525 | 40 | 202 | 1.7 | 3.5 | 0.00 | 0.00 | 0.00 | 89 | 1014.4 |
| 20260509124003 | 40 | 208 | 0.9 | 3.5 | 0.00 | 0.00 | 0.00 | 88 | 1014.5 |
| 20260509123507 | 40 | 93 | 0.0 | 1.7 | 0.00 | 0.00 | 0.00 | 87 | 1014.5 |
| 20260509123025 | 40 | 51 | 0.0 | 2.6 | 0.00 | 0.00 | 0.00 | 87 | 1014.5 |
| 20260509122506 | 40 | 309 | 0.9 | 2.6 | 0.00 | 0.00 | 0.00 | 87 | 1014.6 |
| 20260509122007 | 40 | 330 | 0.9 | 2.6 | 0.00 | 0.00 | 0.00 | 87 | 1014.6 |
| 20260509121520 | 40 | 34 | 1.7 | 2.6 | 0.00 | 0.00 | 0.00 | 86 | 1014.6 |
| 20260509121007 | 39 | 34 | 0.9 | 2.6 | 0.00 | 0.00 | 0.00 | 86 | 1014.7 |
| 20260509120510 | 39 | 51 | 0.9 | 2.6 | 0.00 | 0.00 | 0.00 | 86 | 1014.9 |
| 20260509120017 | 39 | 51 | 0.9 | 3.5 | 0.00 | 0.00 | 0.00 | 87 | 1014.8 |
| 20260509115506 | 39 | 64 | 1.7 | 3.5 | 0.00 | 0.00 | 0.00 | 88 | 1015.0 |
| 20260509115005 | 39 | 51 | 0.9 | 2.6 | 0.00 | 0.00 | 0.00 | 87 | 1015.0 |
| 20260509114510 | 39 | 67 | 0.9 | 3.5 | 0.00 | 0.00 | 0.00 | 88 | 1014.9 |
| 20260509114003 | 39 | 41 | 0.9 | 3.5 | 0.00 | 0.00 | 0.00 | 89 | 1015.0 |
| 20260509113507 | 39 | 48 | 1.7 | 3.5 | 0.00 | 0.00 | 0.00 | 89 | 1015.0 |
| 20260509113014 | 38 | 55 | 1.7 | 3.5 | 0.00 | 0.00 | 0.00 | 89 | 1015.0 |
| 20260509112508 | 38 | 51 | 0.9 | 2.6 | 0.00 | 0.00 | 0.00 | 90 | 1015.1 |
| 20260509112006 | 38 | 9 | 0.0 | 1.7 | 0.00 | 0.00 | 0.00 | 90 | 1015.1 |
| 20260509111520 | 37 | 9 | 0.0 | 1.7 | 0.00 | 0.00 | 0.00 | 91 | 1015.1 |
| 20260509111006 | 37 | 265 | 0.9 | 2.6 | 0.00 | 0.00 | 0.00 | 91 | 1015.0 |
| 20260509110506 | 37 | 221 | 0.9 | 2.6 | 0.00 | 0.00 | 0.00 | 91 | 1015.1 |
| 20260509110025 | 37 | 178 | 0.0 | 2.6 | 0.00 | 0.00 | 0.00 | 91 | 1015.1 |
| 20260509105507 | 37 | 229 | 0.9 | 3.5 | 0.00 | 0.00 | 0.00 | 92 | 1015.2 |
| 20260509105010 | 36 | 221 | 0.9 | 3.5 | 0.00 | 0.00 | 0.00 | 92 | 1015.2 |
| 20260509104520 | 36 | 221 | 1.7 | 3.5 | 0.00 | 0.00 | 0.00 | 92 | 1015.1 |
| 20260509104002 | 36 | 190 | 0.0 | 1.7 | 0.00 | 0.00 | 0.00 | 92 | 1015.2 |
| 20260509103502 | 36 | 319 | 0.0 | 1.7 | 0.00 | 0.00 | 0.00 | 92 | 1015.2 |
| 20260509103011 | 36 | 291 | 0.0 | 1.7 | 0.00 | 0.00 | 0.00 | 92 | 1015.1 |
| 20260509102505 | 35 | 26 | 0.9 | 1.7 | 0.00 | 0.00 | 0.00 | 92 | 1015.0 |
| 20260509102006 | 35 | 338 | 0.0 | 1.7 | 0.00 | 0.00 | 0.00 | 92 | 1015.0 |
| 20260509101521 | 35 | 26 | 0.9 | 2.6 | 0.00 | 0.00 | 0.00 | 92 | 1014.9 |
| 20260509101006 | 35 | 178 | 0.0 | 2.6 | 0.00 | 0.00 | 0.00 | 92 | 1014.9 |
| 20260509100502 | 35 | 9 | 0.9 | 2.6 | 0.00 | 0.00 | 0.00 | 92 | 1014.8 |
| 20260509100004 | 35 | 22 | 0.9 | 2.6 | 0.00 | 0.00 | 0.00 | 92 | 1014.7 |
| 20260509095503 | 35 | 38 | 0.9 | 2.6 | 0.00 | 0.00 | 0.00 | 92 | 1014.7 |
| 20260509095005 | 34 | 76 | 0.0 | 2.6 | 0.00 | 0.00 | 0.00 | 92 | 1014.7 |
| 20260509094503 | 34 | 51 | 0.0 | 2.6 | 0.00 | 0.00 | 0.00 | 92 | 1014.8 |
| 20260509094004 | 34 | 34 | 0.9 | 2.6 | 0.00 | 0.00 | 0.00 | 92 | 1014.8 |
| 20260509093502 | 34 | 46 | 0.9 | 2.6 | 0.00 | 0.00 | 0.00 | 92 | 1014.6 |
| 20260509093017 | 34 | 9 | 0.9 | 2.6 | 0.00 | 0.00 | 0.00 | 92 | 1014.7 |
| 20260509092502 | 34 | 9 | 0.0 | 0.9 | 0.00 | 0.00 | 0.00 | 92 | 1014.6 |
| 20260509092003 | 34 | 51 | 0.0 | 1.7 | 0.00 | 0.00 | 0.00 | 92 | 1014.6 |
| 20260509091514 | 34 | 205 | 0.0 | 1.7 | 0.00 | 0.00 | 0.00 | 92 | 1014.7 |
| 20260509091003 | 34 | 319 | 0.0 | 1.7 | 0.00 | 0.00 | 0.00 | 92 | 1014.7 |
| 20260509090507 | 34 | 279 | 0.0 | 0.9 | 0.00 | 0.00 | 0.00 | 92 | 1014.6 |
| 20260509090021 | 34 | 153 | 0.0 | 1.7 | 0.00 | 0.00 | 0.00 | 92 | 1014.7 |
| 20260509085507 | 34 | 178 | 0.0 | 1.7 | 0.00 | 0.00 | 0.00 | 92 | 1014.8 |
| 20260509085003 | 34 | 9 | 0.0 | 1.7 | 0.00 | 0.00 | 0.00 | 92 | 1014.6 |
| 20260509084511 | 33 | 250 | 0.9 | 1.7 | 0.00 | 0.00 | 0.00 | 92 | 1014.6 |
| 20260509084004 | 33 | 282 | 0.9 | 1.7 | 0.00 | 0.00 | 0.00 | 92 | 1014.5 |
| 20260509083503 | 33 | 309 | 0.9 | 3.5 | 0.00 | 0.00 | 0.00 | 92 | 1014.5 |
| 20260509083005 | 33 | 238 | 1.7 | 3.5 | 0.00 | 0.00 | 0.00 | 92 | 1014.5 |
| 20260509082503 | 33 | 205 | 1.7 | 3.5 | 0.00 | 0.00 | 0.00 | 92 | 1014.4 |
| 20260509082003 | 33 | 196 | 0.9 | 3.5 | 0.00 | 0.00 | 0.00 | 92 | 1014.5 |
| 20260509081510 | 33 | 212 | 0.9 | 3.5 | 0.00 | 0.00 | 0.00 | 92 | 1014.6 |
| 20260509081006 | 33 | 232 | 0.9 | 3.5 | 0.00 | 0.00 | 0.00 | 92 | 1014.4 |
| 20260509080504 | 33 | 225 | 1.7 | 3.5 | 0.00 | 0.00 | 0.00 | 92 | 1014.2 |
| 20260509080014 | 33 | 238 | 0.9 | 2.6 | 0.00 | 0.00 | 0.00 | 92 | 1014.2 |
| 20260509075510 | 33 | 280 | 0.9 | 2.6 | 0.00 | 0.00 | 0.00 | 92 | 1014.2 |
| 20260509075006 | 32 | 232 | 0.0 | 1.7 | 0.00 | 0.00 | 0.00 | 91 | 1014.1 |
| 20260509074525 | 33 | 325 | 0.0 | 1.7 | 0.00 | 0.00 | 0.00 | 91 | 1014.1 |
| 20260509074008 | 33 | 221 | 0.9 | 2.6 | 0.00 | 0.00 | 0.00 | 91 | 1014.0 |
| 20260509073508 | 33 | 221 | 0.0 | 2.6 | 0.00 | 0.00 | 0.00 | 91 | 1013.9 |
| 20260509073024 | 33 | 205 | 0.0 | 2.6 | 0.00 | 0.00 | 0.00 | 91 | 1013.9 |
| 20260509072503 | 33 | 309 | 1.7 | 2.6 | 0.00 | 0.00 | 0.00 | 91 | 1013.9 |
| 20260509072008 | 33 | 329 | 1.7 | 2.6 | 0.00 | 0.00 | 0.00 | 91 | 1013.8 |
| 20260509071508 | 33 | 41 | 0.9 | 2.6 | 0.00 | 0.00 | 0.00 | 91 | 1014.0 |
| 20260509071004 | 33 | 265 | 0.0 | 2.6 | 0.00 | 0.00 | 0.00 | 91 | 1014.1 |
| 20260509070503 | 33 | 93 | 0.0 | 2.6 | 0.00 | 0.00 | 0.00 | 91 | 1014.2 |
| 20260509070012 | 33 | 225 | 1.7 | 2.6 | 0.00 | 0.00 | 0.00 | 91 | 1014.1 |
| 20260509065503 | 33 | 221 | 1.7 | 2.6 | 0.00 | 0.00 | 0.00 | 91 | 1014.1 |
| 20260509065009 | 33 | 232 | 0.0 | 3.5 | 0.00 | 0.00 | 0.00 | 90 | 1013.9 |
| 20260509064517 | 33 | 9 | 0.9 | 3.5 | 0.00 | 0.00 | 0.00 | 90 | 1013.9 |
| 20260509064007 | 33 | 9 | 1.7 | 3.5 | 0.00 | 0.00 | 0.00 | 90 | 1013.9 |
| 20260509063506 | 33 | 24 | 0.9 | 2.6 | 0.00 | 0.00 | 0.00 | 90 | 1013.9 |
| 20260509063021 | 34 | 17 | 1.7 | 2.6 | 0.00 | 0.00 | 0.00 | 90 | 1014.0 |
| 20260509062507 | 34 | 9 | 0.0 | 1.7 | 0.00 | 0.00 | 0.00 | 90 | 1014.0 |
| 20260509062008 | 34 | 265 | 0.0 | 1.7 | 0.00 | 0.00 | 0.00 | 90 | 1014.0 |
| 20260509061524 | 34 | 9 | 0.0 | 1.7 | 0.00 | 0.00 | 0.00 | 90 | 1014.1 |
| 20260509061009 | 34 | 238 | 0.0 | 1.7 | 0.00 | 0.00 | 0.00 | 90 | 1014.3 |
| 20260509060505 | 34 | 232 | 0.0 | 1.7 | 0.00 | 0.00 | 0.00 | 90 | 1014.3 |
| 20260509060010 | 34 | 9 | 0.0 | 1.7 | 0.00 | 0.00 | 0.00 | 89 | 1014.3 |
| 20260509055504 | 34 | 250 | 0.9 | 2.6 | 0.00 | 0.00 | 0.00 | 89 | 1014.3 |
| 20260509055006 | 34 | 19 | 0.9 | 2.6 | 0.00 | 0.00 | 0.00 | 89 | 1014.2 |
| 20260509054523 | 35 | 341 | 0.9 | 1.7 | 0.00 | 0.00 | 0.00 | 89 | 1014.3 |
| 20260509054007 | 35 | 238 | 0.9 | 1.7 | 0.00 | 0.00 | 0.00 | 89 | 1014.3 |
| 20260509053509 | 35 | 250 | 0.0 | 1.7 | 0.00 | 0.00 | 0.00 | 89 | 1014.4 |
| 20260509053052 | 35 | 51 | 0.0 | 2.6 | 0.00 | 0.00 | 0.00 | 89 | 1014.4 |
| 20260509052505 | 35 | 265 | 1.7 | 3.5 | 0.00 | 0.00 | 0.00 | 89 | 1014.4 |
| 20260509052014 | 35 | 249 | 1.7 | 3.5 | 0.00 | 0.00 | 0.00 | 89 | 1014.3 |
| 20260509051526 | 35 | 225 | 1.7 | 3.5 | 0.00 | 0.00 | 0.00 | 89 | 1014.3 |
| 20260509051010 | 35 | 201 | 0.9 | 2.6 | 0.00 | 0.00 | 0.00 | 89 | 1014.2 |
| 20260509050509 | 35 | 221 | 1.7 | 2.6 | 0.00 | 0.00 | 0.00 | 89 | 1014.2 |
| 20260509050037 | 35 | 227 | 0.9 | 2.6 | 0.00 | 0.00 | 0.00 | 88 | 1014.2 |
| 20260509045507 | 35 | 243 | 0.9 | 4.3 | 0.00 | 0.00 | 0.00 | 88 | 1014.1 |
| 20260509045009 | 35 | 265 | 1.7 | 4.3 | 0.00 | 0.00 | 0.00 | 88 | 1014.1 |
| 20260509044515 | 35 | 219 | 2.6 | 4.3 | 0.00 | 0.00 | 0.00 | 88 | 1014.0 |
| 20260509044004 | 35 | 247 | 0.9 | 3.5 | 0.00 | 0.00 | 0.00 | 88 | 1014.0 |
| 20260509043504 | 35 | 265 | 1.7 | 3.5 | 0.00 | 0.00 | 0.00 | 88 | 1014.0 |
| 20260509043018 | 35 | 227 | 2.6 | 3.5 | 0.00 | 0.00 | 0.00 | 88 | 1014.0 |
| 20260509042510 | 35 | 265 | 0.9 | 1.7 | 0.00 | 0.00 | 0.00 | 87 | 1013.9 |
| 20260509042008 | 36 | 51 | 0.0 | 1.7 | 0.00 | 0.00 | 0.00 | 87 | 1013.8 |
| 20260509041519 | 36 | 232 | 0.9 | 2.6 | 0.00 | 0.00 | 0.00 | 87 | 1013.8 |
| 20260509041009 | 36 | 247 | 0.9 | 2.6 | 0.00 | 0.00 | 0.00 | 86 | 1013.7 |
| 20260509040517 | 36 | 265 | 0.9 | 2.6 | 0.00 | 0.00 | 0.00 | 86 | 1013.8 |
| 20260509040022 | 37 | 319 | 0.9 | 2.6 | 0.00 | 0.00 | 0.00 | 86 | 1013.8 |
| 20260509035507 | 37 | 265 | 0.9 | 2.6 | 0.00 | 0.00 | 0.00 | 86 | 1013.8 |
| 20260509035011 | 37 | 217 | 0.9 | 2.6 | 0.00 | 0.00 | 0.00 | 85 | 1013.8 |
| 20260509034526 | 37 | 243 | 0.0 | 2.6 | 0.00 | 0.00 | 0.00 | 85 | 1013.8 |
| 20260509034013 | 37 | 265 | 0.9 | 3.5 | 0.00 | 0.00 | 0.00 | 84 | 1013.8 |
| 20260509033507 | 38 | 247 | 1.7 | 3.5 | 0.00 | 0.00 | 0.00 | 84 | 1013.8 |
| 20260509033026 | 38 | 257 | 1.7 | 3.5 | 0.00 | 0.00 | 0.00 | 83 | 1013.7 |
| 20260509032507 | 38 | 219 | 1.7 | 3.5 | 0.00 | 0.00 | 0.00 | 83 | 1013.7 |
| 20260509032007 | 38 | 227 | 1.7 | 3.5 | 0.00 | 0.00 | 0.00 | 82 | 1013.7 |
| 20260509031516 | 38 | 249 | 1.7 | 4.3 | 0.00 | 0.00 | 0.00 | 82 | 1013.7 |
| 20260509031006 | 39 | 242 | 1.7 | 4.3 | 0.00 | 0.00 | 0.00 | 82 | 1013.7 |
| 20260509030507 | 39 | 255 | 1.7 | 3.5 | 0.00 | 0.00 | 0.00 | 81 | 1013.6 |
| 20260509030031 | 39 | 257 | 1.7 | 3.5 | 0.00 | 0.00 | 0.00 | 81 | 1013.6 |
| 20260509025510 | 39 | 238 | 1.7 | 3.5 | 0.00 | 0.00 | 0.00 | 81 | 1013.6 |
| 20260509025009 | 39 | 207 | 2.6 | 3.5 | 0.00 | 0.00 | 0.00 | 82 | 1013.6 |
| 20260509024523 | 40 | 165 | 0.9 | 3.5 | 0.00 | 0.00 | 0.00 | 81 | 1013.5 |
| 20260509024009 | 40 | 178 | 1.7 | 3.5 | 0.00 | 0.00 | 0.00 | 81 | 1013.5 |
| 20260509023508 | 40 | 51 | 0.9 | 3.5 | 0.00 | 0.00 | 0.00 | 80 | 1013.4 |
| 20260509023040 | 40 | 227 | 1.7 | 4.3 | 0.00 | 0.00 | 0.00 | 80 | 1013.3 |
| 20260509022507 | 40 | 259 | 1.7 | 5.2 | 0.00 | 0.00 | 0.00 | 80 | 1013.3 |
| 20260509022011 | 40 | 234 | 3.5 | 5.2 | 0.00 | 0.00 | 0.00 | 80 | 1013.2 |
| 20260509021528 | 40 | 178 | 1.7 | 4.3 | 0.00 | 0.00 | 0.00 | 80 | 1013.1 |
| 20260509021007 | 41 | 205 | 0.9 | 2.6 | 0.00 | 0.00 | 0.00 | 79 | 1013.1 |
| 20260509020504 | 41 | 257 | 0.9 | 3.5 | 0.00 | 0.00 | 0.00 | 79 | 1013.0 |
| 20260509020018 | 41 | 265 | 1.7 | 3.5 | 0.00 | 0.00 | 0.00 | 79 | 1012.9 |
| 20260509015506 | 41 | 255 | 1.7 | 2.6 | 0.00 | 0.00 | 0.00 | 79 | 1012.8 |
| 20260509015007 | 42 | 196 | 0.0 | 3.5 | 0.00 | 0.00 | 0.00 | 80 | 1012.8 |
| 20260509014526 | 42 | 205 | 1.7 | 3.5 | 0.00 | 0.00 | 0.00 | 79 | 1012.9 |
| 20260509014003 | 42 | 238 | 0.9 | 2.6 | 0.00 | 0.00 | 0.00 | 78 | 1012.8 |
| 20260509013503 | 43 | 238 | 0.9 | 2.6 | 0.00 | 0.00 | 0.00 | 77 | 1012.7 |
| 20260509013006 | 43 | 243 | 0.9 | 3.5 | 0.00 | 0.00 | 0.00 | 76 | 1012.7 |
| 20260509012503 | 43 | 257 | 1.7 | 3.5 | 0.00 | 0.00 | 0.00 | 75 | 1012.7 |
| 20260509012003 | 44 | 232 | 1.7 | 2.6 | 0.00 | 0.00 | 0.00 | 75 | 1012.5 |
| 20260509011512 | 44 | 51 | 0.9 | 2.6 | 0.00 | 0.00 | 0.00 | 73 | 1012.5 |
| 20260509011003 | 44 | 265 | 0.0 | 3.5 | 0.00 | 0.00 | 0.00 | 72 | 1012.5 |
| 20260509010506 | 45 | 265 | 1.7 | 4.3 | 0.00 | 0.00 | 0.00 | 71 | 1012.4 |
| 20260509010019 | 46 | 241 | 1.7 | 4.3 | 0.00 | 0.00 | 0.00 | 70 | 1012.2 |
| 20260509005505 | 46 | 234 | 1.7 | 3.5 | 0.00 | 0.00 | 0.00 | 69 | 1012.2 |
| 20260509005007 | 46 | 232 | 1.7 | 3.5 | 0.00 | 0.00 | 0.00 | 67 | 1012.1 |
| 20260509004520 | 47 | 265 | 1.7 | 3.5 | 0.00 | 0.00 | 0.00 | 66 | 1012.1 |
| 20260509004007 | 47 | 205 | 0.9 | 2.6 | 0.00 | 0.00 | 0.00 | 65 | 1012.0 |
| 20260509003512 | 48 | 319 | 0.9 | 3.5 | 0.00 | 0.00 | 0.00 | 64 | 1011.9 |
| 20260509003004 | 48 | 330 | 1.7 | 3.5 | 0.00 | 0.00 | 0.00 | 62 | 1011.7 |
| 20260509002501 | 48 | 309 | 1.7 | 3.5 | 0.00 | 0.00 | 0.00 | 63 | 1011.6 |
| 20260509002004 | 49 | 325 | 0.0 | 2.6 | 0.00 | 0.00 | 0.00 | 64 | 1011.6 |
| 20260509001511 | 49 | 232 | 0.0 | 2.6 | 0.00 | 0.00 | 0.00 | 63 | 1011.6 |
| 20260509001002 | 49 | 265 | 0.0 | 2.6 | 0.00 | 0.00 | 0.00 | 61 | 1011.6 |